Satellite-Ground Cal/Val Site Overpasses Predictions

Prediction of Satellite NPP Overpassing Cal/Val Site: Antarctic Dome C

Ground Cal/Val Site Location: Latitude: -75.10, Longitude: 123.35; Satellite-Ground Site NADIR distance within 100 km.

Table of predicted overpasses for the next 14.0 days since TLE Epoch: 5/2/2014
Interval Starting Time Ending Time Minimum Distance Time Minimum Distance (km)
1 05/02/2014 15:06:51 05/02/2014 15:07:12 05/02/2014 15:07:01 67.89
2 05/03/2014 14:48:00 05/03/2014 14:48:27 05/03/2014 14:48:14 41.41
3 05/04/2014 07:49:42 05/04/2014 07:50:04 05/04/2014 07:49:53 67.93
4 05/05/2014 07:30:53 05/05/2014 07:31:19 05/05/2014 07:31:06 39.71
5 05/08/2014 14:54:23 05/08/2014 14:54:52 05/08/2014 14:54:38 5.74
6 05/10/2014 07:37:15 05/10/2014 07:37:45 05/10/2014 07:37:30 3.07
7 05/13/2014 15:00:49 05/13/2014 15:01:17 05/13/2014 15:01:03 30.99
8 05/14/2014 14:42:05 05/14/2014 14:42:24 05/14/2014 14:42:14 76.30


NCC Satellite Cal/Val Overpasses Prediction Service
